This is the latest recevied weather packets stored in our database for station/object WL7CLI. If no packets are shown the sender has not sent any weather packets the latest 10 day(s).
| Time | Temp. | Humidity | Pressure | Rain* | Wind** | Luminosity | Snow |
|---|---|---|---|---|---|---|---|
| 1777868819 | 14.44° C | 45% | 1006.2 hPa | 0 mm | - | - | - |
| 1777868173 | 14.44° C | 44% | 1006.3 hPa | 0 mm | - | - | - |
| 1777867618 | 15° C | 43% | 1006.4 hPa | 0 mm | - | - | - |
| 1777867104 | 15° C | 42% | 1007.1 hPa | 0 mm | - | - | - |
| 1777866973 | 15° C | 42% | 1006.5 hPa | 0 mm | - | - | - |
| 1777866418 | 15.56° C | 42% | 1006.7 hPa | 0 mm | - | - | - |
| 1777865774 | 15.56° C | 40% | 1006.8 hPa | 0 mm | - | - | - |
| 1777865304 | 16.11° C | 38% | 1007.6 hPa | 0 mm | - | - | - |
| 1777865217 | 16.11° C | 39% | 1007 hPa | 0 mm | - | - | - |
| 1777864573 | 16.11° C | 37% | 1007 hPa | 0 mm | - | - | - |
| 1777864018 | 16.67° C | 36% | 1007.1 hPa | 0 mm | - | - | - |
| 1777863504 | 16.67° C | 35% | 1007.7 hPa | 0 mm | - | - | - |
| 1777863371 | 16.67° C | 35% | 1007 hPa | 0 mm | - | - | - |
| 1777862819 | 17.22° C | 34% | 1007.1 hPa | 0 mm | - | - | - |
| 1777862172 | 17.78° C | 34% | 1007 hPa | 0 mm | - | - | - |
| 1777861704 | 17.78° C | 33% | 1007.6 hPa | 0 mm | - | - | - |
| 1777861618 | 17.78° C | 33% | 1007 hPa | 0 mm | - | - | - |
| 1777860971 | 18.33° C | 33% | 1006.8 hPa | 0 mm | - | - | - |
| 1777860418 | 18.33° C | 32% | 1006.9 hPa | 0 mm | - | - | - |
| 1777859904 | 18.89° C | 31% | 1007.3 hPa | 0 mm | - | - | - |
| 1777859772 | 18.89° C | 31% | 1006.8 hPa | 0 mm | - | - | - |
| 1777859218 | 19.44° C | 30% | 1006.8 hPa | 0 mm | - | - | - |
| 1777858571 | 20° C | 29% | 1006.7 hPa | 0 mm | - | - | - |
| 1777858104 | 20° C | 28% | 1007.2 hPa | 0 mm | - | - | - |
| 1777858017 | 20° C | 28% | 1006.7 hPa | 0 mm | - | - | - |
* Rain latest hour (hover to see other rain measurements)
** Current wind speed in m/s (hover to see current wind gust speed)